Aurora, OR

9:41 AM PDT on March 27, 2017 (GMT -0700)
Aurora State

Weather History for KUAO - May, 2014

Change the Weather History Date:

Tuesday, May 13, 2014

  Actual Average Record
Temperature  
Mean Temperature 68 °F -  
Max Temperature 85 °F - 88 °F (2012)
Min Temperature 52 °F - 39 °F (2006)
Degree Days  
Heating Degree Days 0    
Month to date heating degree days 105  
Since 1 July heating degree days 4432  
Cooling Degree Days 4    
Month to date cooling degree days 7  
Year to date cooling degree days 12  
Growing Degree Days 18 (Base 50)    
Moisture  
Dew Point 41 °F    
Average Humidity 44    
Maximum Humidity 68    
Minimum Humidity 20    
Precipitation  
Precipitation 0.00 in - 0.56 in (1960)
Month to date precipitation 1.46  
Year to date precipitation 20.34  
Sea Level Pressure  
Sea Level Pressure 30.26 in    
Wind  
Wind Speed 8 mph (North)    
Max Wind Speed 14 mph    
Max Gust Speed 18 mph    
Visibility 10 miles    
Events      
T = Trace of Precipitation, MM = Missing Value Source: NWS Daily Summary

Daily Weather History Graph

Daily Weather History Graph

Search for Another Location

Airport or City:

Trip Planner

Search our weather history database for the weather conditions in past years. The results will help you decide how hot, cold, wet, or windy it might be!

Date:

Astronomy

May. 13, 2014 Rise Set
Actual Time 5:43 AM PDT 8:32 PM PDT
Civil Twilight 5:09 AM PDT 9:06 PM PDT
Nautical Twilight 4:26 AM PDT 9:49 PM PDT
Astronomical Twilight 3:35 AM PDT 10:41 PM PDT
Moon 7:36 PM PDT (5/13) 5:08 AM PDT (5/13)
Length of Visible Light 15h 57m
Length of Day
14h 48m
Waxing Gibbous, 99% of the Moon is Illuminated
May 13
Waxing Gibbous
May 14
Full
May 21
Last Quarter
May 28
New
Jun 5
First Quarter

Hourly Weather History & Observations

Time (PDT) Temp. Dew Point Humidity Pressure Visibility Wind Dir Wind Speed Gust Speed Precip Events Conditions
12:53 AM 57.9 °F 34.0 °F 41% 30.26 in 10.0 mi North 4.6 mph - N/A   Clear
1:53 AM 54.0 °F 35.1 °F 49% 30.25 in 10.0 mi North 5.8 mph - N/A   Clear
2:53 AM 55.0 °F 35.1 °F 47% 30.26 in 10.0 mi North 10.4 mph - N/A   Clear
3:53 AM 54.0 °F 36.0 °F 51% 30.27 in 10.0 mi North 6.9 mph - N/A   Clear
4:53 AM 53.1 °F 36.0 °F 52% 30.28 in 10.0 mi North 8.1 mph - N/A   Clear
6:53 AM 52.0 °F 41.0 °F 66% 30.28 in 10.0 mi Calm Calm - N/A   Clear
7:53 AM 60.1 °F 39.0 °F 46% 30.28 in 10.0 mi North 6.9 mph - N/A   Clear
9:53 AM 70.0 °F 39.9 °F 33% 30.30 in 10.0 mi NNE 9.2 mph - N/A   Clear
10:53 AM 72.0 °F 41.0 °F 33% 30.30 in 10.0 mi North 6.9 mph - N/A   Clear
11:53 AM 75.0 °F 41.0 °F 29% 30.29 in 10.0 mi North 10.4 mph - N/A   Clear
12:53 PM 79.0 °F 43.0 °F 28% 30.29 in 10.0 mi North 6.9 mph - N/A   Clear
1:53 PM 80.1 °F 42.1 °F 26% 30.28 in 10.0 mi NNE 11.5 mph - N/A   Clear
2:53 PM 82.0 °F 41.0 °F 23% 30.26 in 10.0 mi North 9.2 mph - N/A   Clear
3:53 PM 84.0 °F 39.0 °F 20% 30.24 in 10.0 mi North 10.4 mph - N/A   Clear
4:53 PM 84.0 °F 41.0 °F 22% 30.23 in 10.0 mi North 9.2 mph - N/A   Clear
5:53 PM 82.9 °F 39.9 °F 22% 30.22 in 10.0 mi NNE 10.4 mph - N/A   Clear
6:53 PM 80.1 °F 43.0 °F 27% 30.22 in 10.0 mi North 9.2 mph - N/A   Clear
7:53 PM 78.1 °F 42.1 °F 28% 30.21 in 10.0 mi NNE 5.8 mph - N/A   Clear
8:53 PM 71.1 °F 45.0 °F 39% 30.22 in 10.0 mi NNE 4.6 mph - N/A   Clear
9:53 PM 68.0 °F 46.0 °F 45% 30.23 in 10.0 mi NNE 6.9 mph - N/A   Clear
10:53 PM 66.9 °F 46.0 °F 47% 30.24 in 10.0 mi North 4.6 mph - N/A   Clear
11:53 PM 64.0 °F 46.9 °F 54% 30.24 in 10.0 mi North 9.2 mph - N/A   Clear